Tracking 35331 objects as of 16-Sep-2026
HD Live streaming from Space Station
objects crossing your sky now

COSMOS 1472 DEB


COSMOS 1472 DEB is no longer on orbit


NORAD ID: 14198
Int'l Code: 1983-068D
Launch date: July 5, 1983
Source: Commonwealth of Independent States (former USSR) (CIS)
Launch site: PLESETSK MISSILE AND SPACE COMPLEX (PKMTR)
Decay date: 1983-09-03

Note: This is SATELLITE DEBRIS
Your satellite tracking list
Your tracking list is empty




NASA's NSSDC Master Catalog

Two Line Element Set (TLE):
1 14198U 83068  D 83246.03526400  .06453973 -97803-5 +99700-3 0  9999
2 14198 082.3237 359.8095 0014403 274.2246 085.7350 16.33775357009484
Source of the keplerian elements: AFSPC